Last 30 Days

Squaw-Siberia 8700'

Daily Data | America/Los_Angeles
as of 10/27/20 7:17 PM PDT
Date Daily Max Temp (°F) Time of Max Temp Daily Min Temp (°F) Time of Min Temp Wind Spd (mph) Daily Max Wind (mph) Time of Max Wind Max Wind Dir (°) Wet Bulb (°F) WetB Hrs <28F (hrs)
10/26/20 31.1 1649 13.2 0253 44.4 94.8 0041 NE | 50 16.4 24.0
10/25/20 37.2 0029 14.0 2358 32.7 94.0 2235 ENE | 68 23.3 17.8
10/24/20 51.5 1513 35.9 2309 23.4 46.8 1436 SSW | 202 32.7 0.0
10/23/20 55.1 1426 36.1 0125 17.5 35.2 1430 WSW | 238 37.2 0.0
10/22/20 57.3 1451 36.1 2255 8.8 24.1 0030 WSW | 247 36.0 0.0
10/21/20 61.0 1526 46.4 2347 17.4 39.1 1425 SW | 230 38.4 0.0
10/20/20 62.8 1601 45.7 0736 16.8 38.2 0839 E | 89 38.8 0.0
10/19/20 62.7 1533 47.2 0706 12.2 23.5 1041 WSW | 244 39.7 0.0
10/18/20 62.1 1413 48.4 0713 15.9 34.3 1500 SW | 234 40.3 0.0
10/17/20 66.6 1510 51.4 0017 11.2 38.5 1439 SW | 234 40.4 0.0
10/16/20 58.6 1427 39.5 0503 23.5 44.4 0239 ESE | 115 37.0 0.0
10/15/20 60.7 0643 42.1 2313 24.6 52.1 2244 E | 101 39.8 0.0
10/14/20 62.3 1515 49.1 0722 12.2 25.3 2235 E | 82 41.7 0.0
10/13/20 62.1 1457 47.3 0712 16.3 36.7 1418 WSW | 255 40.1 0.0
10/12/20 61.0 1448 44.6 0718 13.7 29.3 1525 SSW | 206 38.3 0.0
10/11/20 56.9 1630 34.9 0339 13.7 61.7 0013 SSW | 209 38.5 0.0
10/10/20 46.6 1410 35.2 2336 40.3 83.0 1353 WNW | 290 36.3 0.0
10/9/20 60.8 1253 41.9 2352 8.8 37.7 2348 SW | 227 36.9 0.0
10/8/20 56.2 1324 47.3 1856 0.0 0.1 0820 SSE | 168 36.2 0.0
10/7/20 64.3 1509 48.6 2027 0.0 0.1 0124 SSE | 159 38.9 0.0
10/6/20 66.6 1350 52.4 0708 0.0 0.1 2109 SSE | 164 40.1 0.0
10/5/20 66.4 1601 51.0 0521 0.0 0.1 1519 SSE | 161 39.6 0.0
10/4/20 65.0 1430 51.7 0708 0.0 0.1 2322 SSE | 162 40.1 0.0
10/3/20 69.8 1601 55.8 2109 0.0 0.1 1557 SSE | 162 42.0 0.0
10/2/20 69.0 1652 57.1 2201 0.0 0.1 1548 SSE | 161 42.7 0.0
10/1/20 66.7 1523 55.5 0043 0.0 0.1 0425 SSE | 162 42.7 0.0
9/30/20 64.9 1422 52.8 0711 0.0 0.1 1644 SSE | 168 43.8 0.0
9/29/20 66.9 1515 49.7 0028 0.0 0.1 0839 S | 169 42.9 0.0
9/28/20 56.2 1412 41.5 0701 0.0 0.1 1140 S | 171 37.6 0.0
9/27/20 53.6 1534 41.4 0556 0.0 0.1 1546 SSE | 166 40.0 0.0
Max 69.8 - 57.1 - 44.4 94.8 - - 43.8 24.0
Avg - - - - 11.8 - - - 37.9 -
Min 31.1 - 13.2 - 0.0 0.1 - - 16.4 0.0